Stations météo

réclame
Mon MeteoGroup
Twenthe, Pays-Bas (6290): Température de l'air & dewpoint: 19.09.2018 13:00:00 - 25.09.2018 13:00:00 (CEST)Twenthe, Pays-Bas (6290): Température de l'air 5cm: 19.09.2018 13:00:00 - 25.09.2018 13:00:00 (CEST)Twenthe, Pays-Bas (6290): Vitesse du vent & gusts: 19.09.2018 13:00:00 - 25.09.2018 13:00:00 (CEST)Twenthe, Pays-Bas (6290): Direction du vent: 19.09.2018 13:00:00 - 25.09.2018 13:00:00 (CEST)Twenthe, Pays-Bas (6290): reduced air pressure: 19.09.2018 13:00:00 - 25.09.2018 13:00:00 (CEST)Twenthe, Pays-Bas (6290): visibility: 19.09.2018 13:00:00 - 25.09.2018 13:00:00 (CEST)Twenthe, Pays-Bas (6290): Quantités de précipitations: 19.09.2018 13:00:00 - 25.09.2018 13:00:00 (CEST)
Date & Time tt [°C] td [°C] tt 5cm [°C] ff [km/h] ff [knt] fx [km/h] fx [knt] dd ppp [hPa] vv [km] rr [mm]
25.09.2018 13:00:00 14,6 7,2 16,6 7 4 18 10 WSW 1039,6 28 0,0
25.09.2018 12:00:00 13,8 7,1 15,4 7 4 14 8 W 1039,7 33 0,0
25.09.2018 11:00:00 12,0 8,1 13,5 4 2 11 6 W 1039,3 27 0,0
25.09.2018 10:00:00 8,8 7,4 9,8 4 2 7 4 WSW 1039,2 22 0,0
25.09.2018 09:00:00 6,4 6,2 5,6 4 2 7 4 S 1038,5 13 0,0
25.09.2018 08:00:00 1,6 1,6 -2,1 4 2 7 4 ESE 1038,0 0,3 0,0
25.09.2018 07:00:00 1,6 1,4 -2,7 4 2 4 2 ESE 1037,8 0,2 0,0
25.09.2018 06:00:00 1,3 1,1 -2,3 4 2 7 4 E 1037,5 0,2 0,0
25.09.2018 05:00:00 1,7 1,1 -1,4 4 2 - - SSE 1037,5 0,3 0,0
25.09.2018 04:00:00 3,4 3,1 0,2 4 2 7 4 S 1037,2 3,0 0,0
25.09.2018 03:00:00 3,7 3,5 1,0 4 2 7 4 S 1037,2 10 0,0
25.09.2018 02:00:00 3,1 2,4 0,2 4 2 4 2 S 1036,9 0,3 0,0
25.09.2018 01:00:00 4,0 3,8 1,3 4 2 4 2 SSW 1037,0 13 0,0
25.09.2018 00:00:00 4,8 4,5 2,0 4 2 4 2 SSW 1036,5 21 0,0
24.09.2018 23:00:00 5,2 4,9 1,6 4 2 7 4 S 1036,0 22 0,0
24.09.2018 22:00:00 5,5 5,3 1,9 4 2 7 4 S 1035,6 12 0,0
24.09.2018 21:00:00 7,5 5,5 4,8 4 2 14 8 NNW 1035,3 45 0,0
24.09.2018 20:00:00 6,6 5,5 3,7 4 2 18 10 W 1034,7 49 0,0
24.09.2018 19:00:00 9,4 5,9 9,0 11 6 43 23 NNW 1034,0 29 0,3
24.09.2018 18:00:00 12,1 5,7 12,3 18 10 36 19 WNW 1033,5 40 0,0
24.09.2018 17:00:00 12,5 7,6 12,6 14 8 58 31 WNW 1033,4 37 0,1
24.09.2018 16:00:00 13,6 6,3 14,3 22 12 43 23 WNW 1032,9 31 0,7
24.09.2018 15:00:00 15,3 5,9 16,5 18 10 43 23 WNW 1032,5 35 0,0
24.09.2018 14:00:00 14,2 5,6 13,4 25 14 43 23 WNW 1032,6 36 0,0
24.09.2018 13:00:00 14,0 6,6 15,2 22 12 40 21 W 1032,2 28 0,0
24.09.2018 12:00:00 13,8 6,7 14,0 22 12 40 21 WNW 1032,0 35 0,0
24.09.2018 11:00:00 12,8 7,0 13,4 18 10 29 16 WNW 1031,6 43 0,0
24.09.2018 10:00:00 11,2 6,8 11,3 14 8 25 14 W 1031,1 38 0,0
24.09.2018 09:00:00 8,9 6,5 8,4 11 6 18 10 WSW 1030,1 35 0,0
24.09.2018 08:00:00 6,1 4,6 3,8 11 6 18 10 W 1029,2 34 0,0
24.09.2018 07:00:00 4,6 3,9 2,4 7 4 14 8 W 1028,5 28 0,0
24.09.2018 06:00:00 4,5 3,6 2,9 11 6 14 8 W 1027,8 28 0,0
24.09.2018 05:00:00 6,0 4,5 3,9 7 4 14 8 W 1027,1 29 0,0
24.09.2018 04:00:00 6,3 4,4 4,5 11 6 18 10 W 1026,4 31 0,0
24.09.2018 03:00:00 5,2 4,0 3,3 11 6 14 8 W 1025,4 26 0,0
24.09.2018 02:00:00 6,3 4,8 4,8 11 6 14 8 W 1024,5 28 0,0
24.09.2018 01:00:00 6,9 5,5 5,6 7 4 18 10 W 1023,5 33 0,0
24.09.2018 00:00:00 6,9 6,0 5,6 11 6 18 10 W 1022,4 30 0,0
23.09.2018 23:00:00 7,6 6,7 5,8 11 6 14 8 W 1021,1 32 0,0
23.09.2018 22:00:00 8,7 7,6 8,3 7 4 18 10 W 1019,6 41 0,0
23.09.2018 21:00:00 8,9 8,0 8,6 11 6 18 10 W 1018,1 42 0,0
23.09.2018 20:00:00 8,9 8,1 8,8 14 8 25 14 WNW 1016,3 43 0,0
23.09.2018 19:00:00 9,3 8,2 9,3 18 10 29 16 NW 1014,8 24 0,1
23.09.2018 18:00:00 9,8 8,9 9,9 14 8 18 10 NW 1013,2 13 1,0
23.09.2018 17:00:00 9,5 8,7 9,6 11 6 22 12 NNW 1012,4 9 1,1
23.09.2018 16:00:00 9,5 8,4 9,6 14 8 25 14 N 1011,8 10 1,8
23.09.2018 15:00:00 9,8 8,3 9,9 18 10 29 16 NNE 1010,9 9 1,9
23.09.2018 14:00:00 10,5 9,6 10,5 14 8 25 14 NNE 1010,6 4,6 2,1
23.09.2018 13:00:00 10,7 10,0 10,9 11 6 18 10 NNE 1011,2 3,6 1,2
23.09.2018 12:00:00 10,8 9,8 11,2 11 6 18 10 N 1011,8 4,8 0,3
23.09.2018 11:00:00 10,7 9,8 11,1 7 4 11 6 ENE 1011,9 4,8 0,2
23.09.2018 10:00:00 10,4 9,5 10,6 7 4 11 6 ENE 1012,2 5 0,0
23.09.2018 09:00:00 9,9 9,5 10,1 7 4 11 6 ENE 1012,9 2,9 0,0
23.09.2018 08:00:00 9,5 9,3 9,4 4 2 7 4 ENE 1013,1 2,5 0,0
23.09.2018 07:00:00 8,9 8,7 8,6 4 2 7 4 NE 1013,3 1,6 0,0
23.09.2018 06:00:00 9,5 9,1 9,2 4 2 7 4 ENE 1013,5 3,5 0,0
23.09.2018 05:00:00 9,9 9,4 9,6 4 2 11 6 SE 1014,5 6 0,0
23.09.2018 04:00:00 9,9 9,3 9,6 4 2 11 6 S 1015,2 6 0,0
23.09.2018 03:00:00 10,2 9,5 10,0 7 4 14 8 SSW 1015,8 6 0,0
23.09.2018 02:00:00 10,2 9,4 9,9 11 6 18 10 S 1016,1 7 0,0
23.09.2018 01:00:00 10,1 9,3 9,9 11 6 14 8 SSW 1016,8 8 0,0
23.09.2018 00:00:00 10,4 9,7 10,2 11 6 18 10 SSW 1017,4 9 0,0
22.09.2018 23:00:00 10,4 9,8 10,3 11 6 22 12 SSW 1017,6 9 0,0
22.09.2018 22:00:00 10,5 9,6 10,3 18 10 32 18 SW 1018,1 13 0,0
22.09.2018 21:00:00 10,5 9,3 10,2 22 12 36 19 SW 1018,1 23 0,1
22.09.2018 20:00:00 10,4 9,1 10,2 14 8 25 14 SW 1017,7 21 0,1
22.09.2018 19:00:00 10,6 9,3 10,5 11 6 18 10 SW 1017,4 30 0,3
22.09.2018 18:00:00 10,7 9,4 10,7 14 8 25 14 SSW 1017,9 22 0,6
22.09.2018 17:00:00 10,7 9,1 10,7 18 10 32 18 WSW 1018,4 18 0,9
22.09.2018 16:00:00 10,7 8,6 10,5 25 14 47 25 WSW 1018,4 7 2,3
22.09.2018 15:00:00 11,8 10,1 11,5 4 2 29 16 WSW 1018,2 27 3,6
22.09.2018 14:00:00 15,0 8,6 15,0 18 10 36 19 SW 1017,9 35 0,0
22.09.2018 13:00:00 15,3 9,1 15,3 22 12 40 21 SW 1018,1 30 0,0
22.09.2018 12:00:00 14,5 9,4 14,6 22 12 36 19 SW 1018,2 31 0,0
22.09.2018 11:00:00 14,0 9,1 15,0 22 12 36 19 SW 1018,8 25 0,0
22.09.2018 10:00:00 12,4 9,2 12,4 18 10 32 18 SW 1018,4 28 0,0
22.09.2018 09:00:00 11,0 8,4 10,6 18 10 29 16 SSW 1018,2 29 0,0
22.09.2018 08:00:00 10,1 8,0 9,6 14 8 25 14 SW 1017,8 28 0,0
22.09.2018 07:00:00 9,9 8,1 9,2 18 10 25 14 SW 1017,4 34 0,0
22.09.2018 06:00:00 9,4 8,0 8,7 14 8 29 16 SW 1017,0 32 0,0
22.09.2018 05:00:00 9,3 8,1 8,6 14 8 22 12 SSW 1016,5 27 0,0
22.09.2018 04:00:00 10,0 8,8 9,5 14 8 25 14 SW 1016,1 27 0,5
22.09.2018 03:00:00 10,5 8,9 9,8 18 10 29 16 SW 1015,4 30 0,0
22.09.2018 02:00:00 10,6 8,9 10,1 14 8 29 16 W 1014,6 13 0,4
22.09.2018 01:00:00 10,6 9,2 10,0 14 8 36 19 SW 1013,6 32 0,3
22.09.2018 00:00:00 10,8 9,0 10,5 25 14 40 21 SW 1012,9 12 0,4
21.09.2018 23:00:00 10,7 8,7 10,1 22 12 32 18 SSW 1011,9 43 0,9
21.09.2018 22:00:00 10,0 8,4 9,6 25 14 40 21 SW 1011,9 20 0,9
21.09.2018 21:00:00 9,9 8,4 9,5 7 4 43 23 SW 1011,7 20 2,4
21.09.2018 20:00:00 11,3 6,6 10,6 40 21 58 31 W 1011,3 14 0,7
21.09.2018 19:00:00 14,4 4,2 13,5 29 16 61 33 SW 1009,3 48 0,0
21.09.2018 18:00:00 15,0 4,5 14,6 36 19 65 35 WSW 1008,8 41 0,0
21.09.2018 17:00:00 16,4 4,4 17,1 36 19 58 31 WSW 1008,5 39 0,0
21.09.2018 16:00:00 16,4 5,4 15,4 36 19 58 31 W 1007,9 41 0,0
21.09.2018 15:00:00 16,7 7,7 15,4 32 18 54 29 WSW 1006,9 39 0,0
21.09.2018 14:00:00 15,9 8,2 16,0 32 18 50 27 W 1006,4 39 0,0
21.09.2018 13:00:00 16,9 10,9 17,0 25 14 50 27 WSW 1004,9 32 0,0
21.09.2018 12:00:00 15,9 12,1 15,9 25 14 43 23 WSW 1004,3 27 0,2
21.09.2018 11:00:00 15,3 13,0 15,0 25 14 65 35 WSW 1003,3 25 0,9
21.09.2018 10:00:00 17,0 14,7 16,5 22 12 65 35 SSW 1001,7 22 1,6
21.09.2018 09:00:00 19,6 12,4 18,3 32 18 61 33 SSW 1001,1 43 0,0
21.09.2018 08:00:00 20,2 11,7 19,1 25 14 40 21 SSW 1000,8 48 0,0
21.09.2018 07:00:00 20,2 12,3 19,4 22 12 40 21 S 1001,4 41 0,0
21.09.2018 06:00:00 20,3 12,4 19,7 25 14 43 23 S 1002,1 45 0,0
21.09.2018 05:00:00 20,1 12,3 19,1 22 12 32 18 S 1003,3 46 0,0
21.09.2018 04:00:00 20,1 12,1 19,1 22 12 36 19 S 1005,0 45 0,0
21.09.2018 03:00:00 20,4 11,8 19,1 22 12 29 16 S 1006,0 45 0,0
21.09.2018 02:00:00 20,6 11,8 19,2 18 10 32 18 S 1007,0 47 0,0
21.09.2018 01:00:00 19,3 11,6 18,2 14 8 22 12 S 1007,8 48 0,0
21.09.2018 00:00:00 19,3 11,9 18,0 14 8 25 14 S 1008,6 43 0,0
20.09.2018 23:00:00 17,8 12,3 15,5 11 6 14 8 SSE 1009,7 43 0,0
20.09.2018 22:00:00 15,7 12,1 12,5 11 6 11 6 SSE 1010,5 41 0,0
20.09.2018 21:00:00 17,8 12,6 14,9 7 4 14 8 SSE 1011,0 34 0,0
20.09.2018 20:00:00 19,6 12,4 17,0 7 4 18 10 S 1011,7 40 0,0
20.09.2018 19:00:00 22,4 12,7 21,5 14 8 32 18 SSW 1012,0 39 0,0
20.09.2018 18:00:00 23,6 12,5 23,5 22 12 36 19 S 1012,7 41 0,0
20.09.2018 17:00:00 24,1 12,9 24,9 25 14 43 23 SSW 1013,5 26 0,0
20.09.2018 16:00:00 24,0 12,9 24,9 25 14 40 21 S 1014,3 25 0,0
20.09.2018 15:00:00 23,8 12,9 25,0 25 14 40 21 SSW 1014,8 26 0,0
20.09.2018 14:00:00 22,7 13,5 23,6 29 16 50 27 SSW 1015,4 26 0,0
20.09.2018 13:00:00 22,0 14,0 22,6 25 14 36 19 SW 1015,8 28 0,0
20.09.2018 12:00:00 21,8 14,2 22,9 25 14 40 21 SSW 1015,9 26 0,0
20.09.2018 11:00:00 20,6 14,0 21,8 18 10 - - SSW 1016,2 24 -
20.09.2018 10:00:00 18,9 13,8 17,9 14 8 25 14 S 1016,4 21 0,0
20.09.2018 09:00:00 18,1 13,2 18,3 14 8 25 14 SSW 1016,4 22 0,0
20.09.2018 08:00:00 16,8 12,7 16,2 14 8 22 12 S 1016,4 22 0,0
20.09.2018 07:00:00 16,1 12,4 15,0 14 8 22 12 S 1016,4 23 0,0
20.09.2018 06:00:00 16,2 12,4 15,2 14 8 22 12 S 1016,5 22 0,0
20.09.2018 05:00:00 17,1 12,6 16,0 14 8 25 14 SSW 1016,6 24 0,0
20.09.2018 04:00:00 17,5 12,7 16,5 14 8 22 12 SSW 1016,3 28 0,0
20.09.2018 03:00:00 17,4 12,7 16,4 14 8 22 12 SSW 1016,4 28 0,0
20.09.2018 02:00:00 18,0 12,7 16,8 11 6 18 10 SSW 1016,7 30 0,0
20.09.2018 01:00:00 18,0 12,6 16,9 11 6 22 12 SSW 1017,0 28 0,0
20.09.2018 00:00:00 19,3 12,6 18,1 14 8 25 14 SW 1017,4 31 0,0
19.09.2018 23:00:00 19,9 12,5 18,3 14 8 25 14 SW 1017,2 35 0,0
19.09.2018 22:00:00 20,2 12,3 19,1 18 10 29 16 SW 1017,1 35 0,0
19.09.2018 21:00:00 19,8 12,2 18,2 11 6 22 12 SW 1016,6 29 0,0
19.09.2018 20:00:00 20,9 12,1 19,5 14 8 25 14 WSW 1016,3 27 0,0
19.09.2018 19:00:00 22,4 12,3 21,5 18 10 36 19 WSW 1015,8 26 0,0
19.09.2018 18:00:00 24,6 13,1 24,7 18 10 43 23 WSW 1015,4 31 0,0
19.09.2018 17:00:00 25,3 12,9 26,0 25 14 47 25 SW 1015,1 23 0,0
19.09.2018 16:00:00 25,5 13,3 26,4 22 12 43 23 SW 1015,1 26 0,0
19.09.2018 15:00:00 25,2 13,8 25,9 25 14 47 25 SW 1015,4 26 0,0
19.09.2018 14:00:00 24,9 14,5 26,3 29 16 47 25 SW 1015,7 26 0,0
19.09.2018 13:00:00 23,5 15,3 24,0 25 14 47 25 SW 1015,8 24 0,0

tt = Température de l'air
td = dewpoint
tt 5cm = Température de l'air 5cm
ff = Vitesse du vent
fx = gusts
dd = Direction du vent
ppp = reduced air pressure
vv = visibility
rr = Quantités de précipitations

stations d'obs. à proximité